010925 704  1.5-  1.6-    011102 458  0.2-  0.3-    020125 349  0.3-  1.7+  

010925 704  1.5-  0.4+    011102 458 (2.3-  0.0 )   020125 349  0.3-  0.7+  

010928 349  0.1-  0.2+    011103 201  0.4-  0.2-    020125 349  1.5-  1.7+  

010928 349  0.1+  0.3-    011103 201  0.5-  0.2-    020215 118  0.1-  1.8-  

010928 349  0.2+  0.2-    011103 201  0.5-  0.0     020215 118  0.8-  0.7-  

010928 360  0.5+  0.0     011103 232  0.4+  0.1-    020215 118  0.4+  1.3-  

010928 360  0.5+  0.2-    011103 232  1.0-  0.3-    020224 360  0.5-  0.6-  

010929 046  0.6+  0.1-    011103 232  0.4-  0.1-    020224 360  0.7-  0.8-  

010929 046  0.5+  0.1-    011103 232  0.5-  0.4+    020311 215  0.5-  0.2-  

010929 046  0.6+  0.2-    011103 235 (2.6-  0.9-)   020313 118 (0.4+  2.8-) 

010929 046  0.3+  0.0     011104 704 (6.8+  2.0+)   020313 118 (0.7-  2.2-) 

011002 349  0.5+  0.3-    011104 704 (2.5+  1.8-)   020313 118  0.2-  1.5-  

011002 349  0.4+  0.2-    011104 704 (2.8+  1.2-)   020313 360  1.2-  1.3-  

011002 349  0.5+  0.3+    011104 704 (2.6+  3.0-)   020313 360  0.3-  0.8-  



NAKANO

         **** Don't distribute anyone except personal use only ****

                (C) Copyright 2002 OAA/ComputingSection

write mail from CFAD0::NAKANO on 2002-03-30 03:15:31(JST).

 



◎P/2001 Q6の軌道と予報位置です



 久万の中村彰正氏の観測では,CCD全光度は2月24日に16.6等,3月13日に

17.4等でした.



    P/2001 Q6 (NEAT) 

Epoch 2001 Nov. 27.0 TT = JDT 2452240.5  

T 2001 Nov. 9.46680 TT                                  Nakano

q   1.4081765            (2000.0)            P               Q

n   0.04360753     Peri.   43.33003     +0.53242938     -0.78548452

a   7.9939555      Node    22.13549     +0.34178625     -0.14148314

e   0.8238448      Incl.   56.85484     +0.77440372     +0.60249198

P  22.60

From 345 observations 2001 Aug. 28-2002 Mar. 13, mean residual 0".60.

 

Date/        TT  R.A.(2000) Decl.     Delta   r     Daily motion  Mag.  Moon Age

              h    h  m       。  ,                      ,  / PA 。  m1      。

2002 Mar. 20 14  13 14.34  +76 14.2   1.698  2.155    34.1 / 240  16.8   78  .35

          21 14  13 06.23  +75 56.6   1.706  2.163    34.2 / 237  16.9   72  .45

          22 14  12 58.49  +75 37.7   1.714  2.172    34.3 / 235  16.9   68  .55

          23 14  12 51.13  +75 17.6   1.723  2.181    34.3 / 233  17.0   64  .66

          24 14  12 44.14  +74 56.3   1.731  2.189    34.4 / 230  17.0   61  .76

          25 14  12 37.52  +74 34.0   1.740  2.198    34.4 / 228  17.0   61  .85

          26 14  12 31.27  +74 10.7   1.749  2.207    34.4 / 226  17.1   62  .93

          27 14  12 25.36  +73 46.5   1.758  2.215    34.4 / 224  17.1   66  .98

          28 14  12 19.80  +73 21.4   1.767  2.224    34.4 / 222  17.2   71 1.00

          29 14  12 14.57  +72 55.6   1.776  2.233    34.4 / 220  17.2   78  .99

          30 14  12 09.65  +72 29.1   1.786  2.241    34.4 / 218  17.3   85  .95

          31 14  12 05.03  +72 02.0   1.796  2.250    34.3 / 217  17.3   93  .89

     Apr.  1 14  12 00.70  +71 34.3   1.806  2.259    34.3 / 215  17.4  100  .80

           2 14  11 56.64  +71 06.0   1.816  2.268    34.3 / 214  17.4  107  .71

           3 14  11 52.84  +70 37.3   1.826  2.276    34.2 / 212  17.5  114  .61

           4 14  11 49.27  +70 08.2   1.837  2.285    34.2 / 211  17.5  119  .51

           5 14  11 45.94  +69 38.7   1.848  2.294    34.1 / 209  17.5  123  .41

           6 14  11 42.83  +69 08.8   1.859  2.303    34.0 / 208  17.6  126  .31

           7 14  11 39.92  +68 38.7   1.870  2.311    33.9 / 207  17.6  127  .23

           8 14  11 37.20  +68 08.3   1.881  2.320    33.8 / 205  17.7  126  .15

           9 14  11 34.67  +67 37.6   1.893  2.329    33.7 / 204  17.7  123  .09

          10 14  11 32.30  +67 06.8   1.905  2.338    33.6 / 203  17.8  119  .05

          11 14  11 30.10  +66 35.8   1.917  2.346    33.5 / 202  17.8  114  .02

          12 14  11 28.06  +66 04.6   1.929  2.355    33.4 / 201  17.9  107  .00

          13 14  11 26.15  +65 33.3   1.941  2.364    33.3 / 200  17.9  100  .01

          14 14  11 24.38  +65 02.0   1.954  2.373    33.1 / 199  18.0   93  .03

          15 14  11 22.74  +64 30.6   1.966  2.382    33.0 / 198  18.0   85  .07

          16 14  11 21.23  +63 59.1   1.979  2.390    32.8 / 197  18.1   77  .13

          17 14  11 19.82  +63 27.6   1.993  2.399    32.7 / 196  18.1   69  .21

          18 14  11 18.52  +62 56.2   2.006  2.408    32.5 / 195  18.1   61  .30

          19 14  11 17.33  +62 24.7   2.019  2.417    32.4 / 194  18.2   55  .40

          20 14  11 16.23  +61 53.2   2.033  2.426    32.2 / 193  18.2   49  .51

          21 14  11 15.22  +61 21.9   2.047  2.434    32.0 / 192  18.3   46  .62

          22 14  11 14.30  +60 50.5   2.061  2.443    31.9 / 191  18.3   46  .72

          23 14  11 13.46  +60 19.3   2.075  2.452    31.7 / 190  18.4   49  .82

          24 14  11 12.70  +59 48.1   2.090  2.461    31.5 / 190  18.4   55  .90

          25 14  11 12.00  +59 17.0   2.105  2.470    31.3 / 189  18.5   64  .96

          26 14  11 11.38  +58 46.0   2.119  2.479    31.2 / 188  18.5   73  .99

          27 14  11 10.83  +58 15.2   2.134  2.487    31.0 / 187  18.6   84 1.00

          28 14  11 10.33  +57 44.5   2.150  2.496    30.8 / 187  18.6   94  .97

          29 14  11 09.89  +57 13.9   2.165  2.505    30.6 / 186  18.7  105  .92

          30 14  11 09.51  +56 43.4   2.180  2.514    30.4 / 185  18.7  114  .85

     May   1 14  11 09.19  +56 13.1   2.196  2.523    30.2 / 184  18.7  123  .76

NAKANO

         **** Don't distribute anyone except personal use only ****

                (C) Copyright 2002 OAA/ComputingSection

write mail from CFAD0::NAKANO on 2002-03-22 05:29:53(JST).

 

    P/2001 Q6 (NEAT) 

Epoch 2001 Nov. 27.0 TT = JDT 2452240.5  

T 2001 Nov. 9.46620 TT                                  Nakano

q   1.4081819            (2000.0)            P               Q

n   0.04359899     Peri.   43.32962     +0.53243449     -0.78547971

a   7.9949995      Node    22.13565     +0.34178504     -0.14148654

e   0.8238672      Incl.   56.85516     +0.77440073     +0.60249746

P  22.61

From 338 observations 2001 Aug. 28-2002 Feb. 15, mean residual 0".59.



NAKANO

         **** Don't distribute anyone except personal use only ****

                (C) Copyright 2002 OAA/ComputingSection

write mail from CFAD0::NAKANO on 2002-02-25 23:29:25(JST).

 



    P/2001 Q6 (NEAT) 

Epoch 2001 Nov. 27.0 TT = JDT 2452240.5  

T 2001 Nov. 9.46675 TT                                  Nakano

q   1.4081758            (2000.0)            P               Q

n   0.04360948     Peri.   43.32998     +0.53243025     -0.78548427

a   7.9937170      Node    22.13545     +0.34178681     -0.14148145

e   0.8238397      Incl.   56.85476     +0.77440287     +0.60249270

P  22.60

From 327 observations 2001 Aug. 28-2002 Jan. 25, mean residual 0".59.





NAKANO

         **** Don't distribute anyone except personal use only ****

                (C) Copyright 2002 OAA/ComputingSection

write mail from CFAD0::NAKANO on 2002-01-29 00:05:43(JST).

 





    P/2001 Q6 (NEAT)

Epoch 2001 Nov. 27.0 TT = JDT 2452240.5  

T 2001 Nov. 9.46700 TT                                  Nakano

q   1.4081735            (2000.0)            P               Q

n   0.04361365     Peri.   43.33014     +0.53242833     -0.78548613

a   7.9932081      Node    22.13538     +0.34178729     -0.14148001

e   0.8238287      Incl.   56.85463     +0.77440398     +0.60249062

P  22.60

From 307 observations 2001 Aug. 28-Dec. 15, mean residual 0".57.



NAKANO

         **** Don't distribute anyone except personal use only ****

                (C) Copyright 2001 OAA/ComputingSection

write mail from CFAD0::NAKANO on 2001-12-24 03:27:27(JST).

 

    P/2001 Q6 (NEAT) 

Epoch 2001 Nov. 27.0 TT = JDT 2452240.5  

T 2001 Nov. 9.46749 TT                                  Nakano

q   1.4081698            (2000.0)            P               Q

n   0.04361953     Peri.   43.33047     +0.53242410     -0.78548973

a   7.9924892      Node    22.13529     +0.34178769     -0.14147876

e   0.8238134      Incl.   56.85446     +0.77440671     +0.60248621

P  22.60

From 280 observations 2001 Aug. 28-Nov. 24, mean residual 0".57.



NAKANO

         **** Don't distribute anyone except personal use only ****

                (C) Copyright 2001 OAA/ComputingSection

write mail from CFAD0::NAKANO on 2001-11-27 01:14:55(JST).

 





    P/2001 Q6 (NEAT) 

T 2001 Nov. 9.46265 TT                                  Nakano

q   1.4082069            (2000.0)            P               Q

n   0.04355600     Peri.   43.32688     +0.53246602     -0.78544896

a   8.0002589      Node    22.13687     +0.34178084     -0.14150812

e   0.8239798      Incl.   56.85708     +0.77438091     +0.60253247

P  22.63

From 208 observations 2001 Aug. 28-Oct. 26.



NAKANO

         **** Don't distribute anyone except personal use only ****

                (C) Copyright 2001 OAA/ComputingSection

write mail from CFAD0::NAKANO on 2001-10-29 22:52:42(JST).

 



    P/2001 Q6 (NEAT) 

T 2001 Nov. 9.46180 TT                                  Nakano

q   1.4082164            (2000.0)            P               Q

n   0.04353812     Peri.   43.32636     +0.53247190     -0.78544245

a   8.0024494      Node    22.13719     +0.34177869     -0.14151549

e   0.8240268      Incl.   56.85763     +0.77437782     +0.60253923

P  22.64

From 144 observations 2001 Aug. 28-Oct. 14.

    



NAKANO

         **** Don't distribute anyone except personal use only ****

                (C) Copyright 2001 OAA/ComputingSection

write mail from CFAD0::NAKANO on 2001-10-16 04:41:11(JST).

 

    P/2001 Q6 (NEAT) 

T 2001 Nov. 9.46163 TT                                  Nakano

q   1.4082200            (2000.0)            P               Q

n   0.04351435     Peri.   43.32659     +0.53246768     -0.78544173

a   8.0053634      Node    22.13760     +0.34177135     -0.14153300

